When you browse on this site, cookies collect data to enhance your experience and personalize the content and advertising you see.
Visit our Privacy Policy to learn more. By continuing to use the site, you agree to this use of cookies and data.
  • In Hungary
  • List of Countries
  • For 7 days
  • Water Temperature
  • Satellite Maps
  • Weather Map
  • News
  • Weather Widgets
  • user-avatar
    Login

    Hourly Weather Glasgow

    Today, 19 January, Saturday

    Time Temperature Precipitation Wind Pressure Humidity
    00:00 +1°C° 0 mm 6 mps 755 mmHg 85%
    01:00 +1°C° 0 mm 5 mps 755 mmHg 87%
    02:00 0°C° 0 mm 5 mps 755 mmHg 89%
    03:00 0°C° 0 mm 4 mps 755 mmHg 91%
    04:00 0°C° 0 mm 4 mps 755 mmHg 92%
    05:00 0°C° 0 mm 3 mps 754 mmHg 92%
    06:00 0°C° 0 mm 3 mps 754 mmHg 93%
    07:00 0°C° 0 mm 3 mps 755 mmHg 92%
    08:00 0°C° 0 mm 3 mps 755 mmHg 92%
    09:00 +1°C° 0 mm 2 mps 755 mmHg 92%
    10:00 +1°C° 0 mm 3 mps 755 mmHg 90%
    11:00 +2°C° 0 mm 3 mps 755 mmHg 87%
    12:00 +3°C° 0 mm 3 mps 755 mmHg 85%
    13:00 +3°C° 0 mm 3 mps 755 mmHg 86%
    14:00 +3°C° 0 mm 3 mps 755 mmHg 88%
    15:00 +3°C° 0 mm 3 mps 755 mmHg 89%
    16:00 +2°C° 0 mm 3 mps 755 mmHg 90%
    17:00 +2°C° 0 mm 3 mps 756 mmHg 91%
    18:00 +2°C° 0 mm 3 mps 756 mmHg 92%
    19:00 +2°C° 0 mm 3 mps 756 mmHg 92%
    20:00 +2°C° 0 mm 3 mps 756 mmHg 92%
    21:00 +2°C° 0 mm 3 mps 757 mmHg 92%
    22:00 +2°C° 0 mm 3 mps 757 mmHg 92%
    23:00 +2°C° 0 mm 3 mps 757 mmHg 91%

    Tomorrow, 20 January, Sunday

    Time Temperature Precipitation Wind Pressure Humidity
    00:00 +2°C° 0 mm 3 mps 757 mmHg 91%
    01:00 +1°C° 0 mm 3 mps 758 mmHg 91%
    02:00 +1°C° 0 mm 3 mps 758 mmHg 92%
    03:00 0°C° 0 mm 3 mps 758 mmHg 92%
    04:00 0°C° 0 mm 3 mps 758 mmHg 91%
    05:00 0°C° 0 mm 3 mps 758 mmHg 91%
    06:00 0°C° 0 mm 3 mps 759 mmHg 90%
    07:00 0°C° 0 mm 3 mps 759 mmHg 88%
    08:00 0°C° 0 mm 3 mps 759 mmHg 86%
    09:00 +1°C° 0 mm 2 mps 760 mmHg 84%
    10:00 0°C° 0 mm 4 mps 760 mmHg 83%
    11:00 +2°C° 0 mm 5 mps 761 mmHg 82%
    12:00 +3°C° 0 mm 6 mps 761 mmHg 80%
    13:00 +3°C° 0.1 mm 6 mps 762 mmHg 79%
    14:00 +2°C° 0.1 mm 6 mps 762 mmHg 77%
    15:00 +2°C° 0.1 mm 6 mps 763 mmHg 75%
    16:00 +1°C° 0 mm 6 mps 763 mmHg 77%
    17:00 -1°C° 0 mm 6 mps 764 mmHg 79%
    18:00 -2°C° 0 mm 6 mps 765 mmHg 80%
    19:00 -1°C° 0 mm 5 mps 765 mmHg 79%
    20:00 -1°C° 0 mm 5 mps 765 mmHg 78%
    21:00 -1°C° 0 mm 5 mps 766 mmHg 77%
    22:00 -1°C° 0 mm 5 mps 766 mmHg 77%
    23:00 -1°C° 0 mm 4 mps 766 mmHg 76%

    Day after tomorrow, 21 January, Monday

    Time Temperature Precipitation Wind Pressure Humidity
    00:00 -1°C° 0 mm 4 mps 767 mmHg 76%
    01:00 -1°C° 0 mm 4 mps 766 mmHg 76%
    02:00 -1°C° 0 mm 3 mps 766 mmHg 76%
    03:00 -1°C° 0 mm 3 mps 766 mmHg 77%
    04:00 -2°C° 0 mm 4 mps 765 mmHg 77%
    05:00 -2°C° 0 mm 4 mps 765 mmHg 77%
    06:00 -2°C° 0 mm 4 mps 764 mmHg 77%
    07:00 -1°C° 0 mm 5 mps 764 mmHg 78%
    08:00 -2°C° 0 mm 6 mps 763 mmHg 79%
    09:00 -2°C° 0 mm 6 mps 762 mmHg 80%
    10:00 -1°C° 0 mm 7 mps 761 mmHg 77%
    11:00 0°C° 0 mm 9 mps 760 mmHg 75%
    12:00 +1°C° 0 mm 10 mps 759 mmHg 72%
    13:00 +1°C° 0 mm 10 mps 757 mmHg 72%
    14:00 +1°C° 0 mm 11 mps 756 mmHg 72%
    15:00 +1°C° 0 mm 11 mps 754 mmHg 72%
    16:00 0°C° 0.1 mm 12 mps 752 mmHg 73%
    17:00 0°C° 0.1 mm 12 mps 750 mmHg 74%
    18:00 0°C° 0.1 mm 12 mps 749 mmHg 75%
    19:00 0°C° 0.3 mm 12 mps 748 mmHg 78%
    20:00 +1°C° 0.3 mm 11 mps 747 mmHg 81%
    21:00 +1°C° 0.3 mm 11 mps 746 mmHg 85%
    22:00 0°C° 0.2 mm 8 mps 745 mmHg 80%
    23:00 +1°C° 0.2 mm 6 mps 744 mmHg 75%

    22 January, Tuesday

    Time Temperature Precipitation Wind Pressure Humidity
    00:00 0°C° 0.2 mm 4 mps 744 mmHg 70%
    01:00 -1°C° 0 mm 4 mps 743 mmHg 74%
    02:00 -2°C° 0 mm 4 mps 743 mmHg 77%
    03:00 -4°C° 0 mm 5 mps 742 mmHg 81%
    04:00 -3°C° 0 mm 4 mps 742 mmHg 82%
    05:00 -2°C° 0 mm 3 mps 742 mmHg 82%
    06:00 -2°C° 0 mm 3 mps 741 mmHg 83%
    07:00 -2°C° 0 mm 3 mps 741 mmHg 82%
    08:00 -2°C° 0 mm 3 mps 742 mmHg 80%
    09:00 -2°C° 0 mm 3 mps 742 mmHg 79%
    10:00 -1°C° 0 mm 3 mps 742 mmHg 75%
    11:00 -1°C° 0 mm 4 mps 742 mmHg 70%
    12:00 0°C° 0 mm 4 mps 742 mmHg 66%
    13:00 0°C° 0 mm 4 mps 742 mmHg 69%
    14:00 0°C° 0 mm 4 mps 742 mmHg 72%
    15:00 0°C° 0 mm 4 mps 743 mmHg 75%
    16:00 -1°C° 0 mm 4 mps 743 mmHg 78%
    17:00 -1°C° 0 mm 5 mps 743 mmHg 81%
    18:00 -2°C° 0 mm 5 mps 744 mmHg 83%
    19:00 -3°C° 0.1 mm 6 mps 744 mmHg 82%
    20:00 -2°C° 0.1 mm 6 mps 744 mmHg 80%
    21:00 -2°C° 0.1 mm 7 mps 744 mmHg 78%
    22:00 -2°C° 0 mm 7 mps 744 mmHg 77%
    23:00 -2°C° 0 mm 8 mps 744 mmHg 77%

    23 January, Wednesday

    Time Temperature Precipitation Wind Pressure Humidity
    00:00 -2°C° 0 mm 8 mps 744 mmHg 76%
    01:00 -3°C° 0 mm 9 mps 744 mmHg 75%
    02:00 -3°C° 0 mm 10 mps 744 mmHg 74%
    03:00 -3°C° 0 mm 10 mps 744 mmHg 73%
    04:00 -2°C° 0 mm 11 mps 744 mmHg 71%
    05:00 -2°C° 0 mm 11 mps 744 mmHg 69%
    06:00 -1°C° 0 mm 12 mps 744 mmHg 67%
    07:00 -1°C° 0.6 mm 12 mps 744 mmHg 70%
    08:00 -1°C° 0.6 mm 11 mps 744 mmHg 73%
    09:00 -1°C° 0.6 mm 11 mps 745 mmHg 76%
    10:00 -1°C° 1 mm 11 mps 745 mmHg 78%
    11:00 -1°C° 1 mm 11 mps 746 mmHg 80%
    12:00 -1°C° 1 mm 12 mps 746 mmHg 83%
    13:00 0°C° 0.4 mm 10 mps 747 mmHg 82%
    14:00 0°C° 0.4 mm 9 mps 748 mmHg 81%
    15:00 +1°C° 0.4 mm 8 mps 749 mmHg 80%
    16:00 0°C° 0.2 mm 8 mps 750 mmHg 81%
    17:00 0°C° 0.2 mm 7 mps 751 mmHg 82%
    18:00 0°C° 0.2 mm 7 mps 752 mmHg 83%
    19:00 0°C° 0 mm 7 mps 753 mmHg 83%
    20:00 0°C° 0 mm 7 mps 754 mmHg 84%
    21:00 -1°C° 0 mm 6 mps 755 mmHg 84%
    22:00 -1°C° 0 mm 6 mps 756 mmHg 85%
    23:00 0°C° 0 mm 5 mps 757 mmHg 86%

    24 January, Thursday

    Time Temperature Precipitation Wind Pressure Humidity
    00:00 0°C° 0 mm 5 mps 758 mmHg 87%
    01:00 -1°C° 0 mm 4 mps 758 mmHg 87%
    02:00 -1°C° 0 mm 4 mps 759 mmHg 88%
    03:00 -1°C° 0 mm 4 mps 760 mmHg 89%
    04:00 -1°C° 0.1 mm 4 mps 760 mmHg 90%
    05:00 0°C° 0.1 mm 5 mps 760 mmHg 91%
    06:00 0°C° 0.1 mm 5 mps 761 mmHg 92%
    07:00 -1°C° 0.1 mm 6 mps 761 mmHg 89%
    08:00 -1°C° 0.1 mm 6 mps 762 mmHg 86%
    09:00 -1°C° 0.1 mm 7 mps 762 mmHg 84%
    10:00 -1°C° 0.1 mm 7 mps 763 mmHg 81%
    11:00 -1°C° 0.1 mm 8 mps 763 mmHg 78%
    12:00 -1°C° 0.1 mm 8 mps 764 mmHg 76%
    13:00 -1°C° 0 mm 7 mps 764 mmHg 75%
    14:00 -1°C° 0 mm 7 mps 764 mmHg 74%
    15:00 -1°C° 0 mm 6 mps 764 mmHg 73%
    16:00 -2°C° 0.1 mm 7 mps 764 mmHg 75%
    17:00 -2°C° 0.1 mm 7 mps 764 mmHg 77%
    18:00 -3°C° 0.1 mm 7 mps 765 mmHg 79%
    19:00 -2°C° 0.1 mm 8 mps 765 mmHg 79%
    20:00 -2°C° 0.1 mm 8 mps 765 mmHg 79%
    21:00 -2°C° 0.1 mm 8 mps 765 mmHg 79%
    22:00 -2°C° 0.1 mm 8 mps 765 mmHg 78%
    23:00 -3°C° 0.1 mm 9 mps 765 mmHg 77%
    Show more